Location: Unspecified
(40.7945°N, 0.0000°E)
Time: 19:35:47
(UTC+00:00)

AIST 2D - Pass Details

Date: 24 July 2019
Orbit: 458 x 470 km, 97.2° (Epoch: 17 August)

Event Time Altitude Azimuth Distance (km) Brightness Sun altitude
Rises 22:12:01 0° 24° (NNE) 2,515 ? -23.8°
Reaches altitude 10° 22:14:19 10° 38° (NE) 1,635 ? -24.1°
Enters shadow 22:15:09 15° 47° (NE) 1,360 ? -24.1°
